This demonstration page uses our WeatherBlox Daily Observations layout. Learn more.

Left ArrowRight Arrow

53.62937, 11.41316

Hourly Observations for February 8, 2018

Temp ( °F °C ) Dew Point ( °F °C ) Humidity (%) Winds ( mph kmh ) Pressure ( in mb ) Visibility ( mi km ) Precip ( " mm )
7:50 am 07:50 Mostly Sunny 12 -11 9 -13 85 85 ENE 3 6 30.18 1022 7 11 N/A
8:20 am 08:20 Mostly Sunny 12 -11 9 -13 85 85 NE 2 4 30.18 1022 7 11 N/A
8:50 am 08:50 Mostly Sunny 12 -11 10 -12 92 92 NE 3 6 30.18 1022 7 11 N/A
9:20 am 09:20 Mostly Sunny 18 -8 16 -9 93 93 VRB 2 4 30.18 1022 7 11 N/A
9:50 am 09:50 Mostly Sunny 21 -6 18 -8 86 86 VRB 1 2 30.18 1022 7 11 N/A
10:20 am 10:20 Mostly Sunny 23 -5 21 -6 93 93 VRB 1 2 30.18 1022 7 11 N/A
10:50 am 10:50 Mostly Sunny 28 -2 21 -6 74 74 VRB 1 2 30.18 1022 7 11 N/A
11:20 am 11:20 Mostly Sunny 28 -2 19 -7 69 69 VRB 2 4 30.18 1022 7 11 N/A
11:50 am 11:50 Mostly Sunny 30 -1 19 -7 64 64 S 3 6 30.18 1022 7 11 N/A
12:20 pm 12:20 Mostly Sunny 30 -1 18 -8 59 59 SSW 3 6 30.18 1022 7 11 N/A
12:50 pm 12:50 Mostly Sunny 32 0 18 -8 55 55 VRB 2 4 30.15 1021 7 11 N/A
1:20 pm 13:20 Mostly Sunny 32 0 18 -8 55 55 W 3 6 30.15 1021 7 11 N/A
1:50 pm 13:50 Mostly Sunny 32 0 18 -8 55 55 VRB 1 2 30.15 1021 7 11 N/A
2:20 pm 14:20 Mostly Sunny 34 1 19 -7 56 56 VRB 2 4 30.15 1021 7 11 N/A
2:50 pm 14:50 Mostly Sunny 34 1 16 -9 48 48 VRB 2 4 30.15 1021 7 11 N/A
3:20 pm 15:20 Mostly Sunny 34 1 18 -8 51 51 W 3 6 30.12 1020 7 11 N/A
3:50 pm 15:50 Mostly Sunny 32 0 18 -8 55 55 SSW 3 6 30.12 1020 7 11 N/A
4:20 pm 16:20 Mostly Sunny 32 0 18 -8 55 55 VRB 2 4 30.12 1020 7 11 N/A
4:50 pm 16:50 Mostly Sunny 30 -1 18 -8 59 59 E 3 6 30.15 1021 7 11 N/A
5:20 pm 17:20 Mostly Clear 28 -2 19 -7 69 69 SE 5 7 30.15 1021 7 11 N/A
5:50 pm 17:50 Mostly Clear 27 -3 21 -6 80 80 SE 3 6 30.15 1021 7 11 N/A

Powered by AerisWeather